Flag for Canada Weather past 2 weeks in Charlottetown, Pr.Edward I, Canada

Now
23 °F

Snow flurries. Mostly cloudy.


Feels Like: 11 °F
Forecast: 3 / 21 °F
Wind: 13 mph from Northwest

Location: Charlottetown

Current Time: Mar 2, 2015 at 9:01:23 PM

Latest Report: Mar 2, 2015 at 8:00 PM


Visibility: 3 mi

Pressure: 29.55 "Hg

Humidity: 86%

Dew point: 19 °F

Location of CharlottetownLocation

Historic Weather in Charlottetown — Graph

°F

Charlottetown temperature yesterday

Maximum temperature yesterday: 23 °F (at 3:00 PM)
Minimum temperature yesterday: 7 °F (at 7:00 AM)
Average temperature yesterday: 15 °F

Past Weeks' High & Low Weather Summary

 TemperatureHumidityPressure
High37 °F (Feb 22, 11:00 AM)100% (Feb 15, 8:00 PM)30.62 "Hg (Feb 15, 8:00 PM)
Low-11 °F (Feb 18, 6:00 AM)40% (Feb 27, 3:00 PM)28.53 "Hg (Feb 15, 10:00 PM)
Average16 °F75%29.90 "Hg
* Reported Feb 15 8:00 PM — Mar 2 8:00 PM, Charlottetown, Weather by CustomWeather, © 2015

Note: Actual official high and low records may vary slightly from our data, if they occured in-between our weather recording intervals... More about our weather records

Advertising

Charlottetown weather history for previous 24 hours

 ConditionsComfort  
Time TempWeatherWind HumidityBarometerVisibility
8:00 PM
Mon, Mar 2
23 °FSnow flurries. Mostly cloudy.13 mph86%29.55 "Hg3 mi
7:00 PM21 °FSnow flurries. Mostly cloudy.14 mph93%29.54 "Hg30 mi
6:00 PM21 °FSnow flurries. Passing clouds.12 mph93%29.52 "Hg6 mi
5:00 PM23 °FLight snow. Mostly cloudy.13 mph86%29.51 "Hg6 mi
4:00 PM23 °FLight snow. Mostly cloudy.17 mph86%29.51 "Hg2 mi
3:00 PM25 °FLight snow. Mostly cloudy.16 mph86%29.50 "Hg1 mi
2:00 PM27 °FLight snow. Mostly cloudy.15 mph86%29.52 "Hg1 mi
1:00 PM28 °FLight snow. Ice fog.3 mph93%29.55 "Hg1 mi
12:00 PM28 °FLight snow. Low clouds.5 mph93%29.62 "Hg2 mi
11:00 AM28 °FLight snow. Mostly cloudy.7 mph93%29.67 "Hg2 mi
10:00 AM27 °FLight snow. Mostly cloudy.10 mph93%29.73 "Hg2 mi
9:00 AM27 °FLight snow. Mostly cloudy.12 mph93%29.78 "Hg2 mi
8:00 AM25 °FLight snow. Mostly cloudy.13 mph100%29.83 "Hg1 mi
7:00 AM25 °FLight snow. Mostly cloudy.14 mph93%29.87 "Hg1 mi
6:00 AM25 °FLight snow. Low clouds.12 mph93%29.92 "Hg4 mi
5:00 AM25 °FLight snow. Mostly cloudy.13 mph93%29.98 "Hg2 mi
4:00 AM23 °FLight snow. Mostly cloudy.12 mph100%30.04 "Hg1 mi
3:00 AM23 °FSnow flurries. Low clouds.14 mph93%30.09 "Hg1 mi
2:00 AM23 °FSnow flurries. Low clouds.12 mph93%30.15 "Hg2 mi
1:00 AM21 °FSnow flurries. Mostly cloudy.10 mph86%30.18 "Hg6 mi
12:46 AM21 °FSnow flurries. Overcast.13 mph86%30.18 "Hg10 mi
12:00 AM19 °FOvercast.9 mph79%30.22 "Hg15 mi
11:00 PM
Sun, Mar 1
18 °FOvercast.8 mph68%30.27 "Hg15 mi
10:00 PM14 °FPassing clouds.8 mph73%30.31 "Hg15 mi
9:00 PM16 °FPassing clouds.6 mph73%30.35 "Hg15 mi
Weather by CustomWeather, © 2015

See weather overviewHow to use our weather pages